Simultaneous Nadir Overpasses (SNOs) Predictions

Prediction of SNOs between GOES-16 and METOP-C Satellite Orbit:

Table of predicted SNOs for the next 14.0 days since TLE Epoch: 3/14/2022
Index Date Time (GOES-16) GOES-16 Lat,Lon METOP-C Lat,Lon Distance(km) Time Diff (sec)
1 03/16/2022 02:31:03 -0.05, -75.24 -0.04, -75.23 1.02 80
2 03/18/2022 14:29:17 0.05, -75.29 -0.06, -74.80 55.41 80
3 03/20/2022 02:50:56 -0.05, -75.29 -0.98, -79.39 467.90 80
4 03/21/2022 02:27:38 -0.05, -75.30 0.18, -74.41 102.61 80
5 03/22/2022 14:46:30 0.05, -75.35 0.87, -78.97 413.09 80
6 03/23/2022 14:25:52 0.05, -75.36 -0.29, -73.98 157.52 80
7 03/25/2022 02:47:31 -0.04, -75.36 -0.75, -78.58 365.54 80
8 03/26/2022 02:24:12 -0.04, -75.38 0.36, -73.58 205.09 80
9 03/27/2022 14:43:05 0.04, -75.43 0.63, -78.15 310.19 80
